Latest Coastal Weather Observations for Cerberus

IDV60701

Issued at 12:11 pm EDT Monday 2 March 2015 (issued every 10 minutes, with the page automatically refreshed every 10 minutes)

About coastal observations | Map of coastal stations | Coastal observations for VIC | Marine services | Other Formats
Station Details ID: 086361 Name: CERBERUS Lat: -38.36 Lon: 145.18 Height: 12.69 m
Data from the previous 72 hours. | See also: Recent months at Cerberus
Date/Time
EDT
Temp

°C
Wind Pressure Rain
since 9am
mm
Weather Cloud Vis
km
Sea
Height
m
Swell
Dir
 
Speed
knots
Gust
knots
hPa Trend Height
m
Period
s
Dir
02/12:00pm 18.6 NNE 5 9 1017.5 - 0.0 - - - - - - -
02/11:30am 17.9 NNE 6 9 1017.8 - 0.0 - - - - - - -
02/11:00am 17.7 NNE 5 10 1018.3 - 0.0 - - - - - - -
02/10:30am 17.4 ENE 4 8 1018.3 - 0.0 - - - - - - -
02/10:00am 16.5 ENE 4 8 1018.5 - 0.0 - - - - - - -
02/09:30am 16.6 ENE 4 7 1018.5 - 0.0 - - - - - - -
02/09:00am 15.5 ENE 3 6 1018.4 - 0.0 - - - - - - -
02/08:30am 14.1 NW 2 3 1018.3 - 0.0 - - - - - - -
02/08:00am 10.8 CALM 0 0 1018.6 - 0.0 - - - - - - -
02/07:30am 9.3 CALM 0 0 1018.6 - 0.0 - - - - - - -
02/07:00am 9.3 NW 2 2 1018.1 - 0.0 - - - - - - -
02/06:30am 10.2 NW 1 2 1018.1 - 0.0 - - - - - - -
02/06:00am 9.6 NW 2 2 1018.1 - 0.0 - - - - - - -
02/05:30am 8.6 CALM 0 1 1017.9 - 0.0 - - - - - - -
02/05:00am 8.0 CALM 0 0 1017.7 - 0.0 - - - - - - -
02/04:30am 8.7 CALM 0 0 1017.6 - 0.0 - - - - - - -
02/04:00am 8.7 CALM 0 0 1017.9 - 0.0 - - - - - - -
02/03:30am 8.7 NW 1 3 1018.1 - 0.0 - - - - - - -
02/03:00am 9.5 NW 2 3 1018.5 - 0.0 - - - - - - -
02/02:30am 9.7 WNW 2 3 1018.5 - 0.0 - - - - - - -
02/02:00am 10.2 WNW 2 3 1018.6 - 0.0 - - - - - - -
02/01:30am 10.6 WSW 1 2 1018.4 - 0.0 - - - - - - -
02/01:00am 10.8 WSW 2 3 1018.1 - 0.0 - - - - - - -
02/12:30am 11.2 WSW 2 3 1017.9 - 0.0 - - - - - - -
02/12:00am 11.1 W 2 3 1018.0 - 0.0 - - - - - - -
 
Date/Time
EDT
Temp

°C
Wind Pressure Rain
since 9am
mm
Weather Cloud Vis
km
Sea
Height
m
Swell
Dir
 
Speed
knots
Gust
knots
hPa Trend Height
m
Period
s
Dir
01/11:30pm 12.5 W 4 5 1018.2 - 0.0 - - - - - - -
01/11:00pm 12.3 W 3 4 1018.3 - 0.0 - - - - - - -
01/10:30pm 12.9 WSW 4 5 1018.4 - 0.0 - - - - - - -
01/10:00pm 13.6 W 4 5 1018.2 - 0.0 - - - - - - -
01/09:30pm 14.9 SSW 3 5 1018.2 - 0.0 - - - - - - -
01/09:00pm 15.6 SSW 5 8 1017.9 - 0.0 - - - - - - -
01/08:30pm 15.9 SSW 5 7 1017.3 - 0.0 - - - - - - -
01/08:00pm 16.7 SSW 6 9 1017.4 - 0.0 - - - - - - -
01/07:30pm 16.6 S 6 11 1017.3 - 0.0 - - - - - - -
01/07:00pm 17.2 S 7 11 1017.0 - 0.0 - - - - - - -
01/06:30pm 17.7 S 8 11 1016.7 - 0.0 - - - - - - -
01/06:00pm 18.3 SSW 9 15 1016.7 - 0.0 - - - - - - -
01/05:30pm 18.9 SSW 10 16 1016.2 - 0.0 - - - - - - -
01/05:00pm 18.8 SSW 12 19 1015.8 - 0.0 - - - - - - -
01/04:30pm 19.2 SSW 12 18 1015.6 - 0.0 - - - - - - -
01/04:00pm 18.7 SSW 12 17 1015.5 - 0.0 - - - - - - -
01/03:30pm 19.9 SW 12 17 1015.4 - 0.0 - - - - - - -
01/03:00pm 19.4 SW 13 19 1015.2 - 0.0 - - - - - - -
01/02:30pm 20.1 SW 11 17 1015.0 - 0.0 - - - - - - -
01/02:00pm 19.6 SSW 11 15 1014.8 - 0.0 - - - - - - -
01/01:30pm 19.8 SW 11 18 1014.5 - 0.0 - - - - - - -
01/01:00pm 20.6 SSW 10 15 1014.5 - 0.0 - - - - - - -
01/12:30pm 19.8 SSW 11 17 1014.4 - 0.0 - - - - - - -
01/12:00pm 19.2 SSW 11 16 1014.0 - 0.0 - - - - - - -
01/11:30am 19.1 SW 10 16 1013.7 - 0.0 - - - - - - -
01/11:00am 18.5 SSW 11 16 1013.2 - 0.0 - - - - - - -
01/10:30am 18.7 SSW 11 18 1012.8 - 0.0 - - - - - - -
01/10:00am 19.0 SSW 11 16 1012.3 - 0.0 - - - - - - -
01/09:30am 18.3 SSW 10 17 1011.7 - 0.0 - - - - - - -
01/09:00am 18.0 SSW 9 13 1011.2 - 11.0 - - - - - - -
01/08:30am 16.9 SSW 8 14 1010.9 - 11.0 - - - - - - -
01/08:00am 17.0 SSW 8 16 1010.3 - 11.0 - - - - - - -
01/07:30am 16.4 SSW 11 16 1009.6 - 11.0 - - - - - - -
01/07:00am 16.4 SW 9 13 1009.0 - 11.0 - - - - - - -
01/06:30am 16.4 SW 7 10 1008.5 - 11.0 - - - - - - -
01/06:00am 16.6 SW 9 14 1007.9 - 11.0 - - - - - - -
01/05:30am 16.6 SW 11 18 1007.1 - 11.0 - - - - - - -
01/05:00am 16.4 SW 11 19 1006.7 - 11.0 - - - - - - -
01/04:30am 16.6 SW 13 21 1006.2 - 11.0 - - - - - - -
01/04:00am 17.0 SSW 10 16 1006.0 - 11.0 - - - - - - -
01/03:30am 17.0 SSW 12 19 1005.7 - 11.0 - - - - - - -
01/03:00am 16.9 SSW 12 19 1005.6 - 11.0 - - - - - - -
01/02:30am 16.8 SW 10 19 1005.7 - 11.0 - - - - - - -
01/02:00am 16.9 SW 10 15 1005.6 - 11.0 - - - - - - -
01/01:30am 17.3 SW 10 18 1005.6 - 10.4 - - - - - - -
01/01:00am 17.8 WSW 5 7 1005.3 - 9.8 - - - - - - -
01/12:30am 18.2 SSW 4 9 1005.1 - 8.8 - - - - - - -
01/12:00am 18.3 CALM 0 0 1005.3 - 8.4 Rain - - - - - -
 
Date/Time
EDT
Temp

°C
Wind Pressure Rain
since 9am
mm
Weather Cloud Vis
km
Sea
Height
m
Swell
Dir
 
Speed
knots
Gust
knots
hPa Trend Height
m
Period
s
Dir
28/11:30pm 18.1 WSW 1 3 1005.2 - 7.8 - - - - - - -
28/11:00pm 18.3 WSW 2 3 1005.8 - 6.4 - - - - - - -
28/10:30pm 18.4 WSW 3 5 1005.4 - 4.0 - - - - - - -
28/10:00pm 18.4 WSW 5 9 1005.0 - 3.0 - - - - - - -
28/09:30pm 18.7 SW 12 19 1005.0 - 1.6 - - - - - - -
28/09:00pm 19.5 SW 20 32 1004.5 - 0.6 Rain - - - - - -
28/08:43pm 23.0 WSW 13 49 1003.1 - 0.0 - - - - - - -
28/08:42pm 23.6 WSW 9 28 1003.0 - 0.0 - - - - - - -
28/08:41pm 23.8 W 8 23 1002.4 - 0.0 - - - - - - -
28/08:30pm 27.2 NNW 5 10 1000.1 - 0.0 - - - - - - -
28/08:00pm 25.9 NNE 3 7 999.0 - 0.0 - - - - - - -
28/07:30pm 26.7 NE 4 8 999.1 - 0.0 - - - - - - -
28/07:00pm 27.6 ENE 3 4 999.2 - 0.0 - - - - - - -
28/06:30pm 28.5 NE 4 7 999.7 - 0.0 - - - - - - -
28/06:00pm 29.1 NE 4 7 1000.3 - 0.0 - - - - - - -
28/05:30pm 28.6 NE 4 8 1001.1 - 0.0 - - - - - - -
28/05:00pm 27.2 E 5 7 1001.6 - 0.0 - - - - - - -
28/04:30pm 26.1 E 3 5 1002.1 - 0.0 - - - - - - -
28/04:00pm 23.4 SE 3 5 1002.8 - 0.0 - - - - - - -
28/03:30pm 26.1 ESE 4 5 1002.5 - 0.0 - - - - - - -
28/03:00pm 25.2 SE 3 5 1002.9 - 0.0 - - - - - - -
28/02:30pm 25.1 SE 3 4 1003.5 - 0.0 - - - - - - -
28/02:00pm 24.7 NNW 2 4 1004.0 - 0.0 - - - - - - -
28/01:30pm 24.4 N 5 9 1004.7 - 0.0 - - - - - - -
28/01:00pm 24.1 NNW 6 10 1004.8 - 0.0 - - - - - - -
28/12:30pm 24.0 NNW 4 8 1005.2 - 0.0 - - - - - - -
28/12:00pm 22.1 WSW 1 4 1005.9 - 0.0 - - - - - - -
28/11:30am 20.6 N 2 3 1005.9 - 0.0 - - - - - - -
28/11:00am 19.6 NNE 4 7 1005.5 - 0.0 - - - - - - -
28/10:30am 19.6 NNE 4 6 1005.6 - 0.0 - - - - - - -
28/10:00am 19.9 NNE 5 8 1005.9 - 0.0 - - - - - - -
28/09:30am 18.9 NNE 4 7 1006.1 - 0.0 - - - - - - -
28/09:00am 18.1 NNE 3 5 1006.4 - 0.0 - - - - - - -
28/08:30am 17.2 NNE 1 2 1006.3 - 0.0 - - - - - - -
28/08:00am 16.8 NNE 2 4 1005.8 - 0.0 - - - - - - -
28/07:30am 16.6 N 3 5 1005.9 - 0.0 - - - - - - -
28/07:00am 16.5 N 6 11 1006.2 - 0.0 - - - - - - -
28/06:30am 17.1 NNE 4 7 1006.0 - 0.0 - - - - - - -
28/06:00am 16.8 ENE 2 4 1005.9 - 0.0 - - - - - - -
28/05:30am 16.5 NE 3 5 1005.9 - 0.0 - - - - - - -
28/05:00am 16.4 ENE 4 5 1006.3 - 0.0 - - - - - - -
28/04:30am 15.7 ESE 2 3 1007.1 - 0.0 - - - - - - -
28/04:00am 15.5 CALM 0 0 1007.7 - 0.0 - - - - - - -
28/03:30am 15.5 CALM 0 0 1008.4 - 0.0 - - - - - - -
28/03:00am 15.6 SE 1 3 1008.9 - 0.0 - - - - - - -
28/02:30am 16.0 SE 1 2 1009.0 - 0.0 - - - - - - -
28/02:00am 15.9 SSE 1 2 1009.6 - 0.0 - - - - - - -
28/01:30am 16.6 ESE 3 5 1009.6 - 0.0 - - - - - - -
28/01:00am 16.5 SE 3 5 1010.2 - 0.0 - - - - - - -
28/12:30am 16.2 SE 2 4 1010.5 - 0.0 - - - - - - -
28/12:00am 16.3 SSE 3 4 1010.8 - 0.0 - - - - - - -
 
Date/Time
EDT
Temp

°C
Wind Pressure Rain
since 9am
mm
Weather Cloud Vis
km
Sea
Height
m
Swell
Dir
 
Speed
knots
Gust
knots
hPa Trend Height
m
Period
s
Dir
27/11:30pm 16.4 SSE 3 5 1011.1 - 0.0 - - - - - - -
27/11:00pm 16.6 SSE 4 7 1011.2 - 0.0 - - - - - - -
27/10:30pm 16.7 SSE 3 5 1011.3 - 0.0 - - - - - - -
27/10:00pm 16.7 SSE 3 4 1011.1 - 0.0 - - - - - - -
27/09:30pm 16.9 SSE 3 5 1010.8 - 0.0 - - - - - - -
27/09:00pm 16.7 SSE 3 5 1010.7 - 0.0 - - - - - - -
27/08:30pm 17.0 SSE 3 5 1010.4 - 0.0 - - - - - - -
27/08:00pm 17.1 S 4 7 1010.2 - 0.0 - - - - - - -
27/07:30pm 17.4 SSE 4 6 1009.9 - 0.0 - - - - - - -
27/07:00pm 17.8 SSE 4 7 1009.6 - 0.0 - - - - - - -
27/06:30pm 18.1 SSE 5 8 1009.7 - 0.0 - - - - - - -
27/06:00pm 18.3 SSE 5 8 1009.7 - 0.0 - - - - - - -
27/05:30pm 18.7 SSE 7 10 1009.8 - 0.0 - - - - - - -
27/05:00pm 18.6 S 7 11 1010.0 - 0.0 - - - - - - -
27/04:30pm 19.2 S 7 11 1010.3 - 0.0 - - - - - - -
27/04:00pm 19.4 S 7 11 1010.2 - 0.0 - - - - - - -
27/03:30pm 19.9 SSW 8 11 1010.1 - 0.0 - - - - - - -
27/03:00pm 20.6 S 7 11 1010.2 - 0.0 - - - - - - -
27/02:30pm 21.2 SE 5 7 1010.3 - 0.0 - - - - - - -
27/02:00pm 20.4 S 7 10 1010.8 - 0.0 - - - - - - -
27/01:30pm 21.1 SSE 7 11 1010.5 - 0.0 - - - - - - -
27/01:00pm 19.9 S 7 11 1010.7 - 0.0 - - - - - - -
27/12:30pm 20.0 SSW 5 8 1011.2 - 0.0 - - - - - - -

Other Formats:

Comma delimited format used in spreadsheet applications
http://www.bom.gov.au/fwo/IDV60701/IDV60701.94898.axf

JavaScript Object Notation format (JSON) in row-major order
http://www.bom.gov.au/fwo/IDV60701/IDV60701.94898.json